Weather in Glubinnoye

Russia / Primorsky Krai     46°04′03″N   135°23′19″E
temp.,
°C
wind,
m/s
gust,
m/s
humid.,
%
clouds,
%
prec.,
mm/h
press.,
hPa
HPBL,
m
30 june, thu
thu3001:00+13se2188100 0.0 100914
04:00+13ese1188100 0.0 100914
07:00+16se1280100 0.0 101078
10:00+22ese1162100 0.0 1010497
13:00+26wsw124699 0.0 10101553
16:00+27wsw223631 0.0 10092243
19:00+23w236441 0.0 1011262
22:00+17wsw008392 0.0 101311
1 july, fri
fri101:00+14se118988 0.0 101311
04:00+15se2272100 0.0 101437
07:00+15ese2192100 0.5 101429
10:00+21sse1256100 0.6 1014509
13:00+23ssw1151100 0.0 1013755
16:00+24w1254100 0.0 1012835
19:00+22nnw1174100 0.0 1011110
22:00+18n0087100 0.1 101211
2 july, sat
sat201:00+16se0094100 0.0 101211
04:00+15e119594 0.0 101211
07:00+18ese1187100 0.0 101278
10:00+24w126425 0.0 1010886
13:00+25w3465100 0.1 10091213
16:00+25wnw456398 0.3 10081341
19:00+21w129668 1.8 1009221
22:00+18wsw009831 2.5 100911
3 july, sun
sun301:00+17sw009874 0.0 100911
04:00+17nw009999 0.0 100911
07:00+19ssw019846 0.0 100897
10:00+23wnw117983 0.2 1008708
13:00+28wnw2252100 0.1 10061702
16:00+26wnw2368100 0.3 1006573
19:00+23w1192100 1.3 100658
22:00+19se1195100 2.8 100711
4 july, mon
mon401:00+18se119691 0.1 100812
04:00+17se21979 0.1 100722
07:00+19se129718 0.0 100795
10:00+23sw127981 0.3 1007632
13:00+28wsw2355100 0.4 10051459
16:00+28wsw3358100 0.7 10051534
19:00+24w2389100 1.3 100559
22:00+20s1194100 1.7 100711